EW9213 Weather Reports


time (UTC)temp
C
wind
direction
speed
KPH
gust
KPH
rain 1hr
cm
rain 24hr
cm
rain mn
cm
humidity
%
barometer
mb
20260507103114 1 177 3.2 17.7 0.00 0.00 0.00 61 1022.4
20260507101545 2 233 12.9 20.9 0.00 0.00 0.00 59 1022.2
20260507100058 2 230 25.7 35.4 0.00 0.00 0.00 58 1022.2
20260507094544 2 226 27.4 37.0 0.00 0.00 0.00 58 1022.2
20260507093041 2 235 32.2 40.2 0.00 0.00 0.00 58 1022.3
20260507091544 2 239 27.4 38.6 0.00 0.00 0.00 59 1022.3
20260507090046 2 232 27.4 41.8 0.00 0.00 0.00 60 1022.2
20260507084545 2 233 25.7 33.8 0.00 0.00 0.00 63 1022.3
20260507083037 2 226 22.5 35.4 0.00 0.00 0.00 60 1022.3
20260507081534 2 218 29.0 40.2 0.00 0.00 0.00 58 1022.2
20260507080032 2 215 27.4 38.6 0.00 0.00 0.00 57 1022.3
20260507074529 3 226 30.6 43.5 0.00 0.00 0.00 56 1022.3
20260507073027 3 231 32.2 40.2 0.00 0.00 0.00 54 1022.4
20260507071526 3 199 27.4 35.4 0.00 0.00 0.00 53 1022.5
20260507070021 3 221 22.5 29.0 0.00 0.00 0.00 51 1022.6
20260507064517 4 216 20.9 30.6 0.00 0.00 0.00 49 1022.6
20260507063014 5 215 19.3 27.4 0.00 0.00 0.00 48 1022.7
20260507061513 4 230 20.9 29.0 0.00 0.00 0.00 48 1022.7
20260507060017 5 205 19.3 27.4 0.00 0.00 0.00 48 1022.8
20260507054507 5 210 17.7 24.1 0.00 0.00 0.00 47 1022.9
20260507053007 5 207 16.1 20.9 0.00 0.00 0.00 46 1022.9
20260507051503 5 196 16.1 20.9 0.00 0.00 0.00 47 1023.0
20260507050100 5 195 14.5 20.9 0.00 0.00 0.00 46 1023.1
20260507044604 5 199 17.7 22.5 0.00 0.00 0.00 46 1023.1
20260507043058 5 195 17.7 22.5 0.00 0.00 0.00 45 1023.2
20260507041604 5 181 16.1 20.9 0.00 0.00 0.00 45 1023.4
20260507040056 5 178 14.5 20.9 0.00 0.00 0.00 44 1023.5
20260507034557 6 145 8.0 11.3 0.00 0.00 0.00 41 1023.5
20260507033054 6 141 6.4 11.3 0.00 0.00 0.00 40 1023.7
20260507031552 6 126 4.8 8.0 0.00 0.00 0.00 39 1023.7
20260507030051 6 121 3.2 4.8 0.00 0.00 0.00 39 1023.7
20260507024553 6 143 1.6 3.2 0.00 0.00 0.00 39 1023.7
20260507023050 6 150 0.0 4.8 0.00 0.00 0.00 40 1023.7
20260507021601 7 115 0.0 6.4 0.00 0.00 0.00 40 1023.7
20260507020107 7 100 4.8 9.7 0.00 0.00 0.00 38 1023.7
20260507014616 8 37 1.6 8.0 0.00 0.00 0.00 38 1023.7
20260507013051 8 350 0.0 3.2 0.00 0.00 0.00 37 1023.7
20260507011557 8 354 6.4 16.1 0.00 0.00 0.00 36 1023.7
20260507010047 9 311 0.0 8.0 0.00 0.00 0.00 36 1023.8
20260507004546 9 334 6.4 17.7 0.00 0.00 0.00 36 1023.9
20260507003044 9 352 9.7 16.1 0.00 0.00 0.00 36 1024.0
20260507001558 9 318 1.6 20.9 0.00 0.00 0.00 36 1024.1
20260507000056 9 19 6.4 24.1 0.00 0.00 0.00 35 1024.2
20260506234600 9 36 14.5 22.5 0.00 0.00 0.00 35 1024.3
20260506233046 9 18 11.3 25.7 0.00 0.00 0.00 37 1024.4
20260506231538 9 349 9.7 22.5 0.00 0.00 0.00 36 1024.6
20260506230036 9 312 4.8 16.1 0.00 0.00 0.00 36 1024.7
20260506224535 9 302 4.8 11.3 0.00 0.00 0.00 37 1024.8
20260506223033 9 313 3.2 17.7 0.00 0.00 0.00 37 1025.0
20260506221536 10 277 3.2 14.5 0.00 0.00 0.00 40 1025.1
20260506220033 9 351 3.2 22.5 0.00 0.00 0.00 39 1025.3
20260506214529 8 344 6.4 12.9 0.00 0.00 0.00 38 1025.4
20260506213026 8 300 1.6 11.3 0.00 0.00 0.00 40 1025.7
20260506211537 8 297 0.0 22.5 0.00 0.00 0.00 42 1025.9
20260506210032 8 20 4.8 17.7 0.00 0.00 0.00 40 1026.2
20260506204522 8 268 3.2 16.1 0.00 0.00 0.00 42 1026.4
20260506203018 8 37 12.9 19.3 0.00 0.00 0.00 40 1026.6
20260506201515 7 359 12.9 22.5 0.00 0.00 0.00 40 1026.8
20260506200014 7 20 16.1 30.6 0.00 0.00 0.00 42 1027.0
20260506194511 7 91 0.0 9.7 0.00 0.00 0.00 45 1027.1
20260506193011 7 300 3.2 22.5 0.00 0.00 0.00 42 1027.2
20260506191507 8 335 6.4 24.1 0.00 0.00 0.00 41 1027.5
20260506190006 7 349 8.0 25.7 0.00 0.00 0.00 41 1027.6
20260506184503 8 323 8.0 19.3 0.00 0.00 0.00 40 1027.9
20260506183105 7 32 8.0 20.9 0.00 0.00 0.00 43 1028.1
20260506181606 7 290 6.4 27.4 0.00 0.00 0.00 44 1028.4
20260506180057 6 300 6.4 20.9 0.00 0.00 0.00 46 1028.6
20260506174555 6 6 4.8 27.4 0.00 0.00 0.00 49 1028.9
20260506173120 5 321 8.0 19.3 0.00 0.00 0.00 46 1029.1
20260506171557 5 32 9.7 22.5 0.00 0.00 0.00 46 1029.2
20260506170105 5 20 4.8 20.9 0.00 0.00 0.00 49 1029.4
20260506164550 5 325 1.6 12.9 0.00 0.00 0.00 48 1029.5
20260506163054 5 4 0.0 12.9 0.00 0.00 0.00 51 1029.7
20260506161647 3 316 0.0 11.3 0.00 0.00 0.00 53 1029.9
20260506160046 4 307 4.8 16.1 0.00 0.00 0.00 50 1030.0
20260506154603 3 345 3.2 14.5 0.00 0.00 0.00 53 1030.1
20260506153041 3 347 6.4 16.1 0.00 0.00 0.00 51 1030.1
20260506151541 2 44 0.0 12.9 0.00 0.00 0.00 56 1030.2
20260506150040 3 19 6.4 17.7 0.00 0.00 0.00 54 1030.3
20260506144549 3 321 3.2 12.9 0.00 0.00 0.00 54 1030.2
20260506143038 3 36 1.6 9.7 0.00 0.00 0.00 54 1030.3
20260506141635 2 50 0.0 6.4 0.00 0.00 0.00 57 1030.3
20260506140036 2 34 0.0 3.2 0.00 0.00 0.00 59 1030.4
20260506134532 1 40 0.0 1.6 0.00 0.00 0.00 63 1030.4
20260506133039 0 69 0.0 0.0 0.00 0.00 0.00 68 1030.2
20260506131530 0 302 0.0 0.0 0.00 0.00 0.00 70 1030.4
20260506130029 -1 290 0.0 0.0 0.00 0.00 0.00 71 1030.4
20260506124526 -1 38 0.0 0.0 0.00 0.00 0.00 69 1030.2
20260506123024 0 269 0.0 0.0 0.00 0.00 0.00 66 1029.9
20260506121522 0 269 0.0 0.0 0.00 0.00 0.00 66 1029.8
20260506120023 -1 269 0.0 0.0 0.00 0.00 0.00 66 1029.5
20260506114523 -1 285 0.0 1.6 0.00 0.00 0.00 67 1029.5
20260506113019 -1 301 0.0 3.2 0.00 0.00 0.00 66 1029.4
20260506111518 -1 319 0.0 3.2 0.00 0.00 0.00 66 1029.4
20260506110018 -1 307 1.6 8.0 0.00 0.00 0.00 65 1029.4
20260506104536 -1 293 3.2 8.0 0.00 0.00 0.00 66 1029.4